F4FTJ-13 Weather Reports


time (UTC)temp
C
wind
direction
speed
KPH
gust
KPH
rain 1hr
cm
rain 24hr
cm
rain mn
cm
humidity
%
barometer
mb
20260506151036 14 26 0.0 3.2 0.00 0.81 0.71 75 1011.3
20260506150537 14 22 0.0 3.2 0.00 0.84 0.71 77 1011.2
20260506150037 14 36 0.0 6.4 0.00 0.84 0.71 75 1011.0
20260506145537 15 57 0.0 6.4 0.00 0.84 0.71 75 1011.1
20260506145037 15 71 0.0 3.2 0.00 0.84 0.71 74 1011.2
20260506144536 15 90 1.6 3.2 0.00 0.84 0.71 74 1011.1
20260506142537 16 61 0.0 6.4 0.00 0.89 0.71 75 1011.1
20260506142037 15 50 1.6 6.4 0.00 0.89 0.71 73 1011.1
20260506141537 15 51 0.0 6.4 0.00 0.89 0.71 76 1011.2
20260506141037 15 67 1.6 6.4 0.00 0.89 0.71 74 1011.1
20260506140037 15 89 0.0 6.4 0.00 0.97 0.71 76 1011.1
20260506135537 15 106 3.2 9.7 0.00 0.97 0.71 76 1011.2
20260506135037 15 99 0.0 9.7 0.00 0.97 0.71 77 1011.2
20260506134537 15 82 3.2 6.4 0.00 0.97 0.71 80 1011.3
20260506134037 14 74 3.2 6.4 0.00 0.97 0.71 79 1011.2
20260506133037 14 76 1.6 6.4 0.00 1.27 0.71 79 1011.3
20260506132537 14 87 1.6 6.4 0.00 1.27 0.71 81 1011.3
20260506132037 14 86 0.0 12.9 0.00 1.27 0.71 82 1011.3
20260506131537 13 81 3.2 12.9 0.00 1.27 0.71 82 1011.3
20260506131037 13 70 3.2 11.3 0.00 1.27 0.71 81 1011.3
20260506130537 14 66 3.2 6.4 0.00 1.37 0.71 82 1011.3
20260506130037 13 72 3.2 6.4 0.00 1.37 0.71 80 1011.2
20260506125537 13 66 3.2 6.4 0.00 1.37 0.71 82 1011.3
20260506125037 13 49 3.2 6.4 0.00 1.37 0.71 83 1011.1
20260506124537 13 42 1.6 6.4 0.00 1.37 0.71 85 1011.0
20260506124038 13 56 3.2 9.7 0.00 1.37 0.71 84 1011.1
20260506123037 13 82 1.6 6.4 0.00 1.47 0.71 85 1011.0
20260506122537 13 84 0.0 11.3 0.00 1.47 0.71 86 1011.1
20260506121037 13 64 3.2 6.4 0.00 1.47 0.71 85 1011.1
20260506120537 13 52 3.2 6.4 0.00 1.60 0.71 83 1010.9
20260506120037 14 44 0.0 6.4 0.00 1.60 0.71 87 1011.1
20260506115537 13 57 1.6 6.4 0.00 1.60 0.71 84 1011.0
20260506115037 13 71 1.6 6.4 0.00 1.60 0.71 88 1011.0
20260506114537 13 72 3.2 6.4 0.00 1.60 0.71 87 1011.2
20260506114037 12 74 3.2 14.5 0.00 1.60 0.71 88 1011.2
20260506113537 12 74 3.2 14.5 0.00 1.70 0.71 88 1011.0
20260506113037 12 62 3.2 6.4 0.00 1.70 0.71 89 1011.1
20260506112536 12 55 3.2 6.4 0.00 1.70 0.71 89 1011.3
20260506112037 12 66 0.0 11.3 0.00 1.70 0.71 92 1011.0
20260506111537 12 68 1.6 11.3 0.00 1.70 0.71 91 1011.0
20260506111037 12 66 3.2 6.4 0.00 1.70 0.71 90 1011.0
20260506110537 12 56 3.2 9.7 0.00 1.83 0.71 91 1011.1
20260506110037 12 65 1.6 12.9 0.00 1.83 0.71 93 1011.3
20260506105537 12 68 3.2 12.9 0.00 1.83 0.71 93 1011.2
20260506105037 12 45 3.2 9.7 0.00 1.83 0.71 95 1011.0
20260506104036 12 61 1.6 6.4 0.00 1.83 0.71 96 1010.9
20260506103537 11 44 1.6 9.7 0.00 1.96 0.71 96 1010.7
20260506103037 11 55 1.6 9.7 0.00 1.96 0.71 97 1011.0
20260506102537 11 64 1.6 6.4 0.00 1.96 0.71 97 1010.6
20260506102037 10 62 3.2 6.4 0.00 1.96 0.71 98 1010.9
20260506101537 11 46 1.6 6.4 0.00 1.96 0.71 99 1010.9
20260506100537 11 57 3.2 6.4 0.00 2.11 0.71 99 1010.9
20260506100037 10 57 1.6 6.4 0.00 2.11 0.71 99 1010.5
20260506095537 11 47 1.6 11.3 0.00 2.11 0.71 99 1010.4
20260506095037 10 51 3.2 11.3 0.00 2.11 0.71 99 1010.7
20260506094037 10 63 0.0 6.4 0.00 2.11 0.71 99 1010.4
20260506093537 10 60 3.2 6.4 0.00 2.64 0.71 99 1010.5
20260506092537 10 61 1.6 6.4 0.00 2.64 0.71 99 1010.3
20260506092037 10 53 1.6 6.4 0.00 2.64 0.71 99 1010.3
20260506091537 10 47 1.6 6.4 0.00 2.64 0.71 99 1010.3
20260506091037 10 58 1.6 6.4 0.00 2.64 0.71 99 1010.2
20260506090537 10 56 0.0 3.2 0.00 3.33 0.71 99 1010.3
20260506090037 10 57 0.0 6.4 0.00 3.33 0.71 99 1010.2
20260506085536 10 54 1.6 6.4 0.03 3.33 0.71 99 1010.0
20260506085037 10 43 0.0 6.4 0.03 3.33 0.71 99 1009.9
20260506084537 10 34 1.6 6.4 0.03 3.33 0.71 99 1010.0
20260506084037 10 34 3.2 6.4 0.03 3.33 0.71 99 1009.9
20260506083537 10 62 0.0 6.4 0.03 3.84 0.71 99 1009.8
20260506083037 10 58 0.0 6.4 0.03 3.84 0.71 99 1010.0
20260506082537 10 48 1.6 6.4 0.03 3.84 0.71 99 1010.2
20260506082037 10 51 1.6 3.2 0.03 4.17 0.71 99 1010.1
20260506081036 10 63 0.0 6.4 0.03 4.27 0.71 99 1009.9
20260506073037 9 54 1.6 6.4 0.03 5.08 0.69 99 1009.7
20260506072537 10 41 3.2 6.4 0.05 5.16 0.69 99 1009.3
20260506071537 10 35 0.0 3.2 0.05 5.26 0.69 99 1009.5
20260506071037 10 47 0.0 3.2 0.05 5.28 0.69 99 1009.3
20260506070537 10 60 0.0 3.2 0.05 5.33 0.69 99 1009.2
20260506062037 10 68 0.0 6.4 0.00 5.69 0.64 99 1008.9
20260506061537 10 52 0.0 3.2 0.00 5.74 0.64 99 1008.9
20260506061037 10 35 0.0 3.2 0.00 5.77 0.64 99 1008.7
20260506060537 10 17 0.0 3.2 0.00 5.79 0.64 99 1008.7
20260506051037 10 0 0.0 0.0 0.00 5.99 0.64 99 1008.4
20260506050537 10 0 0.0 0.0 0.00 6.07 0.64 99 1008.2
20260506045037 10 0 0.0 0.0 0.00 6.27 0.64 99 1008.1
20260506044537 10 0 0.0 0.0 0.00 6.27 0.64 99 1008.1
20260506044037 10 0 0.0 0.0 0.00 6.27 0.64 99 1007.8
20260506043537 10 0 0.0 0.0 0.00 6.27 0.64 99 1008.1
20260506043037 10 0 0.0 0.0 0.00 6.27 0.64 99 1008.1
20260506042037 10 0 0.0 0.0 0.00 6.27 0.64 99 1007.9
20260506041537 10 0 0.0 0.0 0.00 6.30 0.64 99 1007.8
20260506041037 10 0 0.0 0.0 0.00 6.30 0.64 99 1008.0
20260506040537 10 68 0.0 3.2 0.00 6.30 0.64 99 1007.9
20260506040037 10 54 0.0 3.2 0.00 6.32 0.64 99 1008.0
20260506035537 10 45 0.0 3.2 0.00 6.32 0.64 99 1008.2
20260506035037 10 45 0.0 3.2 0.00 6.32 0.64 99 1007.8
20260506034037 10 0 0.0 0.0 0.00 6.35 0.64 99 1007.9
20260506033537 10 0 0.0 0.0 0.03 6.35 0.64 99 1008.2
20260506032537 10 0 0.0 0.0 0.03 6.35 0.64 99 1008.2
20260506032037 10 0 0.0 0.0 0.03 6.35 0.64 99 1008.1
20260506031037 10 0 0.0 0.0 0.05 6.35 0.64 99 1008.2
20260506030537 10 0 0.0 0.0 0.05 6.35 0.64 99 1008.2
20260506030037 10 0 0.0 0.0 0.05 6.35 0.64 99 1008.1
20260506025037 10 0 0.0 0.0 0.10 6.40 0.64 99 1008.2
20260506024537 10 0 0.0 0.0 0.13 6.40 0.64 99 1008.1
20260506024037 10 0 0.0 0.0 0.15 6.40 0.64 99 1008.3
20260506023537 10 0 0.0 0.0 0.15 6.35 0.61 99 1008.3
20260506023037 10 0 0.0 0.0 0.20 6.35 0.61 99 1008.0
20260506022537 10 0 0.0 0.0 0.33 6.35 0.61 99 1008.4
20260506022037 10 0 0.0 0.0 0.46 6.35 0.61 99 1008.3
20260506021037 10 0 0.0 0.0 0.48 6.32 0.56 99 1008.3
20260506020537 10 0 0.0 0.0 0.51 6.32 0.56 99 1008.3
20260506020037 10 0 0.0 0.0 0.53 6.32 0.56 99 1008.3
20260506015536 10 0 0.0 0.0 0.51 6.30 0.53 99 1008.3
20260506015037 10 0 0.0 0.0 0.51 6.30 0.53 99 1008.3
20260506014537 10 0 0.0 0.0 0.48 6.27 0.51 99 1008.3
20260506013537 10 0 0.0 0.0 0.46 6.20 0.46 99 1008.5
20260506013037 10 0 0.0 0.0 0.36 6.12 0.36 99 1008.4
20260506012537 10 0 0.0 0.0 0.28 6.02 0.28 99 1008.4
20260506012037 10 0 0.0 0.0 0.15 5.92 0.15 99 1008.2
20260506011537 11 0 0.0 0.0 0.13 5.87 0.13 99 1008.3
20260506011037 11 0 0.0 0.0 0.10 5.84 0.10 99 1008.5
20260506010537 11 0 0.0 0.0 0.05 5.82 0.05 99 1008.4
20260506005536 10 0 0.0 0.0 0.03 5.79 0.03 99 1008.3
20260506005037 10 0 0.0 0.0 0.03 5.79 0.03 99 1008.3
20260506004537 10 0 0.0 0.0 0.00 5.77 0.00 99 1008.5
20260506004037 11 0 0.0 0.0 0.00 5.77 0.00 99 1008.4
20260506003537 11 0 0.0 0.0 0.00 5.77 0.00 99 1008.5
20260506002537 11 0 0.0 0.0 0.00 5.77 0.00 99 1008.5
20260506002037 11 0 0.0 0.0 0.00 5.77 0.00 99 1008.6
20260506001537 11 0 0.0 0.0 0.00 5.77 0.00 99 1008.7
20260506000037 11 0 0.0 0.0 0.00 5.77 0.00 99 1008.6
20260505235537 11 0 0.0 0.0 0.00 5.77 0.00 99 1008.6
20260505235036 11 0 0.0 0.0 0.00 5.77 0.00 99 1008.7
20260505234537 11 0 0.0 0.0 0.00 5.77 0.00 99 1008.6
20260505233537 11 0 0.0 0.0 0.00 5.77 0.00 99 1008.5
20260505233037 11 0 0.0 0.0 0.00 5.77 0.00 99 1008.9
20260505232037 11 0 0.0 0.0 0.00 5.77 0.00 99 1008.6
20260505231536 11 0 0.0 0.0 0.00 5.77 0.00 99 1008.6
20260505230537 11 0 0.0 0.0 0.00 5.77 0.00 99 1008.8
20260505230037 11 0 0.0 0.0 0.00 5.77 0.00 99 1008.9
20260505225537 11 0 0.0 0.0 0.00 5.77 0.00 99 1008.8
20260505225037 11 0 0.0 0.0 0.00 5.77 0.00 99 1008.9
20260505224537 11 0 0.0 0.0 0.00 5.77 0.00 99 1008.8
20260505224037 11 0 0.0 0.0 0.00 5.77 0.00 99 1009.0
20260505223537 11 0 0.0 0.0 0.00 5.77 0.00 99 1009.0
20260505223037 11 0 0.0 0.0 0.00 5.77 0.00 99 1008.9
20260505222037 11 0 0.0 0.0 0.00 5.77 0.00 99 1008.9
20260505221037 11 0 0.0 0.0 0.00 5.77 0.00 99 1009.1
20260505220537 11 0 0.0 0.0 0.00 5.77 0.00 99 1009.0
20260505220038 11 0 0.0 0.0 0.00 5.77 0.00 99 1009.0
20260505215537 11 0 0.0 0.0 0.00 5.77 5.77 99 1009.0
20260505215037 11 0 0.0 0.0 0.00 5.77 5.77 99 1009.1
20260505214537 11 0 0.0 0.0 0.00 5.77 5.77 99 1009.0
20260505214036 11 0 0.0 0.0 0.00 5.77 5.77 99 1008.8
20260505213537 11 0 0.0 0.0 0.00 5.77 5.77 99 1008.8
20260505213037 11 0 0.0 0.0 0.00 5.77 5.77 99 1008.8
20260505212537 11 0 0.0 0.0 0.00 5.77 5.77 99 1008.7
20260505212037 11 0 0.0 0.0 0.00 5.77 5.77 99 1008.6
20260505211537 11 0 0.0 0.0 0.00 5.77 5.77 99 1008.8
20260505211037 11 0 0.0 0.0 0.00 5.77 5.77 99 1008.6
20260505210537 11 0 0.0 0.0 0.00 5.77 5.77 99 1008.7
20260505205537 11 0 0.0 0.0 0.03 5.77 5.77 99 1008.7
20260505205037 11 0 0.0 0.0 0.03 5.77 5.77 99 1008.8
20260505204037 11 0 0.0 0.0 0.03 5.77 5.77 99 1009.0
20260505203537 11 0 0.0 0.0 0.03 5.77 5.77 99 1008.9
20260505203037 11 0 0.0 0.0 0.03 5.77 5.77 99 1008.8
20260505202536 11 0 0.0 0.0 0.03 5.77 5.77 99 1008.8
20260505202037 11 0 0.0 0.0 0.03 5.77 5.77 99 1008.7
20260505201537 11 0 0.0 0.0 0.03 5.77 5.77 99 1008.9
20260505201037 11 0 0.0 0.0 0.03 5.77 5.77 99 1008.9
20260505200537 11 0 0.0 0.0 0.03 5.77 5.77 99 1008.9
20260505195537 11 0 0.0 0.0 0.00 5.74 5.74 99 1008.8
20260505195037 11 0 0.0 0.0 0.00 5.74 5.74 99 1008.9
20260505194536 11 0 0.0 0.0 0.00 5.74 5.74 99 1008.7
20260505194037 11 0 0.0 0.0 0.00 5.74 5.74 99 1008.8
20260505193537 11 0 0.0 0.0 0.00 5.74 5.74 99 1008.8
20260505192537 11 0 0.0 0.0 0.00 5.74 5.74 99 1008.5
20260505192037 11 0 0.0 0.0 0.00 5.74 5.74 99 1008.5
20260505191537 11 0 0.0 0.0 0.00 5.74 5.74 99 1008.5
20260505191037 11 0 0.0 0.0 0.00 5.74 5.74 99 1008.5
20260505190537 11 0 0.0 0.0 0.00 5.74 5.74 99 1008.6
20260505190037 11 0 0.0 0.0 0.00 5.74 5.74 99 1008.5
20260505185037 11 0 0.0 0.0 0.00 5.74 5.74 99 1008.5
20260505184537 11 0 0.0 0.0 0.00 5.74 5.74 99 1008.5
20260505184037 11 23 0.0 3.2 0.00 5.74 5.74 99 1008.6
20260505183537 11 23 0.0 3.2 0.03 5.77 5.74 99 1008.6
20260505183037 12 0 0.0 0.0 0.03 5.77 5.74 99 1008.4
20260505182537 12 0 0.0 0.0 0.03 5.77 5.74 99 1008.1
20260505182037 12 0 0.0 0.0 0.03 5.77 5.74 99 1008.1
20260505181537 12 0 0.0 0.0 0.03 5.79 5.74 99 1008.1
20260505180536 12 81 0.0 3.2 0.03 5.79 5.74 99 1008.2
20260505180037 12 90 0.0 3.2 0.03 5.79 5.74 99 1008.1
20260505175537 12 68 0.0 3.2 0.03 5.79 5.74 99 1008.1
20260505175037 12 68 0.0 3.2 0.03 5.79 5.74 99 1008.1
20260505174537 12 68 0.0 3.2 0.03 5.79 5.74 99 1007.9
20260505174036 12 68 0.0 3.2 0.03 5.79 5.74 99 1008.0
20260505173537 12 0 0.0 0.0 0.00 5.77 5.69 99 1008.1
20260505172537 12 0 0.0 0.0 0.00 5.77 5.69 99 1008.2
20260505172037 12 81 0.0 6.4 0.00 5.77 5.69 99 1008.0
20260505171537 12 66 0.0 6.4 0.00 5.77 5.69 99 1008.1
20260505170037 12 23 1.6 3.2 0.00 5.77 5.69 99 1008.1
20260505165537 12 45 0.0 3.2 0.00 5.77 5.69 99 1008.2
20260505165037 12 45 0.0 3.2 0.00 5.77 5.69 99 1008.1
20260505164537 12 54 0.0 3.2 0.00 5.79 5.69 99 1008.0
20260505164037 12 61 1.6 3.2 0.00 5.79 5.69 99 1008.2
20260505163037 12 90 0.0 3.2 0.03 5.79 5.69 99 1008.0
20260505162537 13 90 0.0 3.2 0.03 5.79 5.69 99 1008.0
20260505162037 13 0 0.0 0.0 0.03 5.79 5.69 99 1008.0